KLM085 SEQM-SEGU

Flight info

Callsign KLM085
Flight time 0h 31m
Altitude 22000
Route TEMOX3B TEMOX TEMOX2
Aircraft B77W/H-SDE1E2E3FGHIJ2J3J4J5M1RWXYZ/LB1D1

Departure

Time 2026-04-26 16:11
Airport Mariscal Sucre International Airport (SEQM)

Arrival

Time 2026-04-26 16:42
Airport José Joaquín de Olmedo International Airport (SEGU)
Time Latitude Longitude Altitude Speed Heading
2026-04-26 15:50 -0.12500 -78.35914 7847 ft 0 kts 266°
2026-04-26 16:01 -0.12499 -78.35906 7839 ft 4 kts 269°
2026-04-26 16:01 -0.12501 -78.35879 7839 ft 4 kts 282°
2026-04-26 16:02 -0.12502 -78.35877 7847 ft 0 kts 284°
2026-04-26 16:05 -0.12517 -78.35893 7841 ft 7 kts 201°
2026-04-26 16:05 -0.12581 -78.35848 7845 ft 14 kts 147°
2026-04-26 16:05 -0.12674 -78.35816 7846 ft 14 kts 144°
2026-04-26 16:05 -0.12693 -78.35720 7852 ft 14 kts 87°
2026-04-26 16:06 -0.12698 -78.35622 7865 ft 14 kts 121°
2026-04-26 16:06 -0.12792 -78.35598 7870 ft 14 kts 176°
2026-04-26 16:06 -0.12893 -78.35593 7873 ft 14 kts 178°
2026-04-26 16:06 -0.12993 -78.35589 7877 ft 14 kts 178°
2026-04-26 16:07 -0.13094 -78.35585 7883 ft 14 kts 178°
2026-04-26 16:07 -0.13193 -78.35581 7887 ft 14 kts 178°
2026-04-26 16:07 -0.13293 -78.35577 7889 ft 14 kts 178°
2026-04-26 16:07 -0.13393 -78.35573 7890 ft 14 kts 178°
2026-04-26 16:08 -0.13494 -78.35569 7892 ft 14 kts 178°
2026-04-26 16:08 -0.13560 -78.35566 7895 ft 14 kts 178°
2026-04-26 16:08 -0.13695 -78.35561 7900 ft 14 kts 178°
2026-04-26 16:08 -0.13795 -78.35557 7906 ft 14 kts 178°
2026-04-26 16:09 -0.13895 -78.35553 7903 ft 14 kts 178°
2026-04-26 16:09 -0.13996 -78.35549 7915 ft 14 kts 178°
2026-04-26 16:09 -0.14095 -78.35546 7916 ft 14 kts 178°
2026-04-26 16:09 -0.14188 -78.35538 7919 ft 12 kts 167°
2026-04-26 16:10 -0.14252 -78.35490 7920 ft 12 kts 110°
2026-04-26 16:10 -0.14253 -78.35407 7921 ft 8 kts 89°
2026-04-26 16:10 -0.14212 -78.35373 7924 ft 13 kts
2026-04-26 16:10 -0.13952 -78.35378 7909 ft 71 kts 357°
2026-04-26 16:11 -0.13226 -78.35409 7889 ft 135 kts 358°
2026-04-26 16:11 -0.12101 -78.35456 7838 ft 186 kts 357°
2026-04-26 16:11 -0.10728 -78.35523 8132 ft 199 kts 357°
2026-04-26 16:11 -0.09297 -78.35601 8520 ft 213 kts 355°
2026-04-26 16:12 -0.07849 -78.35682 9321 ft 203 kts 356°
2026-04-26 16:12 -0.06451 -78.35750 10014 ft 203 kts 356°
2026-04-26 16:12 -0.03296 -78.35935 10498 ft 256 kts 354°
2026-04-26 16:13 -0.01519 -78.36430 10627 ft 280 kts 325°
2026-04-26 16:13 -0.00187 -78.37937 10862 ft 307 kts 293°
2026-04-26 16:13 0.00208 -78.40104 11084 ft 334 kts 264°
2026-04-26 16:13 -0.00291 -78.42410 11273 ft 357 kts 254°
2026-04-26 16:14 -0.00983 -78.44886 11670 ft 379 kts 254°
2026-04-26 16:14 -0.01656 -78.47473 12469 ft 390 kts 256°
2026-04-26 16:14 -0.02885 -78.52810 14535 ft 399 kts 257°
2026-04-26 16:15 -0.03471 -78.55529 15444 ft 404 kts 257°
2026-04-26 16:15 -0.04105 -78.58278 16236 ft 406 kts 252°
2026-04-26 16:15 -0.05405 -78.60803 16937 ft 414 kts 230°
2026-04-26 16:16 -0.09510 -78.64820 18418 ft 422 kts 223°
2026-04-26 16:16 -0.11635 -78.66864 19259 ft 427 kts 223°
2026-04-26 16:16 -0.13771 -78.68936 20083 ft 429 kts 224°
2026-04-26 16:16 -0.15915 -78.71028 20948 ft 432 kts 224°
2026-04-26 16:17 -0.18067 -78.73133 21730 ft 436 kts 224°
2026-04-26 16:17 -0.20252 -78.75274 22318 ft 441 kts 224°
2026-04-26 16:17 -0.22450 -78.77430 22351 ft 444 kts 224°
2026-04-26 16:17 -0.24652 -78.79592 22359 ft 444 kts 224°
2026-04-26 16:18 -0.26867 -78.81759 22359 ft 447 kts 224°
2026-04-26 16:18 -0.31272 -78.86080 22355 ft 446 kts 224°
2026-04-26 16:19 -0.35704 -78.90435 22355 ft 448 kts 224°
2026-04-26 16:19 -0.37927 -78.92615 22363 ft 448 kts 224°
2026-04-26 16:19 -0.41624 -78.96240 22360 ft 449 kts 224°
2026-04-26 16:20 -0.44601 -78.99162 22356 ft 449 kts 224°
2026-04-26 16:20 -0.49024 -79.03501 22364 ft 448 kts 224°
2026-04-26 16:20 -0.51251 -79.05686 22362 ft 448 kts 224°
2026-04-26 16:21 -0.53472 -79.07865 22366 ft 448 kts 224°
2026-04-26 16:21 -0.55693 -79.10044 22367 ft 447 kts 224°
2026-04-26 16:21 -0.57927 -79.12209 22360 ft 447 kts 221°
2026-04-26 16:21 -0.60476 -79.13954 22347 ft 441 kts 205°
2026-04-26 16:22 -0.63291 -79.15211 22368 ft 447 kts 203°
2026-04-26 16:22 -0.66148 -79.16462 22364 ft 449 kts 203°
2026-04-26 16:22 -0.68962 -79.17711 22361 ft 448 kts 204°
2026-04-26 16:22 -0.71797 -79.18991 22360 ft 447 kts 204°
2026-04-26 16:23 -0.74622 -79.20282 22359 ft 447 kts 204°
2026-04-26 16:23 -0.77444 -79.21584 22361 ft 446 kts 204°
2026-04-26 16:23 -0.80261 -79.22892 22362 ft 446 kts 204°
2026-04-26 16:23 -0.83072 -79.24197 22356 ft 446 kts 204°
2026-04-26 16:24 -0.85890 -79.25507 22359 ft 446 kts 204°
2026-04-26 16:24 -0.88704 -79.26814 22361 ft 447 kts 204°
2026-04-26 16:24 -0.91521 -79.28123 22355 ft 447 kts 204°
2026-04-26 16:24 -0.94302 -79.29414 22329 ft 446 kts 204°
2026-04-26 16:25 -0.97131 -79.30728 21719 ft 451 kts 204°
2026-04-26 16:25 -0.99967 -79.32046 21086 ft 448 kts 204°
2026-04-26 16:25 -1.02782 -79.33354 20447 ft 444 kts 204°
2026-04-26 16:25 -1.05575 -79.34649 19810 ft 440 kts 204°
2026-04-26 16:26 -1.08340 -79.35931 19180 ft 436 kts 204°
2026-04-26 16:26 -1.10150 -79.36771 18765 ft 432 kts 204°
2026-04-26 16:26 -1.13765 -79.38447 17933 ft 421 kts 204°
2026-04-26 16:26 -1.16335 -79.39646 17327 ft 408 kts 204°
2026-04-26 16:27 -1.18902 -79.40842 16745 ft 405 kts 204°
2026-04-26 16:27 -1.21450 -79.42024 16151 ft 403 kts 204°
2026-04-26 16:27 -1.23991 -79.43202 15559 ft 401 kts 204°
2026-04-26 16:27 -1.26512 -79.44374 14975 ft 401 kts 204°
2026-04-26 16:28 -1.29039 -79.45547 14387 ft 398 kts 204°
2026-04-26 16:28 -1.31531 -79.46708 13790 ft 393 kts 204°
2026-04-26 16:28 -1.33998 -79.47854 13227 ft 391 kts 205°
2026-04-26 16:28 -1.36453 -79.48999 12635 ft 388 kts 204°
2026-04-26 16:29 -1.38858 -79.50107 12070 ft 385 kts 204°
2026-04-26 16:29 -1.41286 -79.51231 11498 ft 384 kts 204°
2026-04-26 16:29 -1.43699 -79.52349 11048 ft 378 kts 205°
2026-04-26 16:29 -1.46032 -79.53436 10885 ft 364 kts 205°
2026-04-26 16:30 -1.48274 -79.54481 10697 ft 342 kts 205°
2026-04-26 16:30 -1.50335 -79.55437 10530 ft 311 kts 205°
2026-04-26 16:30 -1.52194 -79.56302 10400 ft 283 kts 204°
2026-04-26 16:30 -1.53949 -79.57110 10321 ft 273 kts 204°
2026-04-26 16:31 -1.55647 -79.57895 10208 ft 266 kts 205°
2026-04-26 16:31 -1.57322 -79.58675 10107 ft 269 kts 205°
2026-04-26 16:31 -1.59048 -79.59479 9829 ft 284 kts 205°
2026-04-26 16:31 -1.60858 -79.60323 9500 ft 288 kts 205°
2026-04-26 16:32 -1.62677 -79.61170 9139 ft 289 kts 205°
2026-04-26 16:32 -1.63881 -79.61730 8881 ft 289 kts 205°
2026-04-26 16:32 -1.66322 -79.62866 8406 ft 289 kts 205°
2026-04-26 16:32 -1.68141 -79.63712 8069 ft 288 kts 205°
2026-04-26 16:33 -1.69954 -79.64558 7731 ft 286 kts 205°
2026-04-26 16:33 -1.71756 -79.65395 7440 ft 285 kts 205°
2026-04-26 16:33 -1.73468 -79.66193 7098 ft 266 kts 205°
2026-04-26 16:33 -1.75138 -79.66968 6815 ft 264 kts 205°
2026-04-26 16:34 -1.76802 -79.67740 6507 ft 263 kts 205°
2026-04-26 16:34 -1.78461 -79.68512 6203 ft 263 kts 205°
2026-04-26 16:34 -1.80116 -79.69283 5894 ft 262 kts 205°
2026-04-26 16:34 -1.81763 -79.70052 5582 ft 261 kts 205°
2026-04-26 16:35 -1.83414 -79.70817 5276 ft 261 kts 205°
2026-04-26 16:35 -1.85056 -79.71580 4968 ft 261 kts 205°
2026-04-26 16:35 -1.86656 -79.72323 4638 ft 249 kts 205°
2026-04-26 16:35 -1.88168 -79.73025 4396 ft 230 kts 205°
2026-04-26 16:36 -1.89570 -79.73678 4112 ft 215 kts 205°
2026-04-26 16:36 -1.90875 -79.74285 3842 ft 199 kts 205°
2026-04-26 16:36 -1.92097 -79.74854 3614 ft 194 kts 205°
2026-04-26 16:36 -1.93328 -79.75438 3462 ft 196 kts 208°
2026-04-26 16:37 -1.94510 -79.76090 3276 ft 192 kts 209°
2026-04-26 16:37 -1.95649 -79.76733 3098 ft 186 kts 210°
2026-04-26 16:37 -1.96758 -79.77371 2972 ft 186 kts 210°
2026-04-26 16:37 -1.97890 -79.78025 2820 ft 191 kts 210°
2026-04-26 16:38 -1.99022 -79.78681 2718 ft 185 kts 210°
2026-04-26 16:38 -2.00128 -79.79322 2481 ft 182 kts 210°
2026-04-26 16:38 -2.01217 -79.79952 2313 ft 181 kts 210°
2026-04-26 16:38 -2.02306 -79.80580 2187 ft 180 kts 210°
2026-04-26 16:39 -2.03393 -79.81211 2142 ft 181 kts 210°
2026-04-26 16:39 -2.04483 -79.81842 2087 ft 181 kts 210°
2026-04-26 16:39 -2.05565 -79.82468 2072 ft 180 kts 210°
2026-04-26 16:39 -2.06663 -79.83106 1876 ft 185 kts 210°
2026-04-26 16:40 -2.07736 -79.83725 1634 ft 168 kts 210°
2026-04-26 16:40 -2.08683 -79.84274 1415 ft 152 kts 210°
2026-04-26 16:40 -2.09564 -79.84785 1231 ft 144 kts 210°
2026-04-26 16:40 -2.10434 -79.85288 1053 ft 144 kts 210°
2026-04-26 16:41 -2.11301 -79.85791 838 ft 144 kts 210°
2026-04-26 16:41 -2.12162 -79.86292 641 ft 143 kts 210°
2026-04-26 16:41 -2.13013 -79.86791 465 ft 142 kts 211°
2026-04-26 16:41 -2.13877 -79.87298 230 ft 145 kts 210°
2026-04-26 16:42 -2.14745 -79.87783 55 ft 143 kts 210°
2026-04-26 16:42 -2.15558 -79.88256 28 ft 122 kts 210°
2026-04-26 16:42 -2.16129 -79.88586 28 ft 68 kts 210°
2026-04-26 16:42 -2.16335 -79.88706 27 ft 3 kts 224°
2026-04-26 16:43 -2.16344 -79.88732 27 ft 5 kts 264°
2026-04-26 16:43 -2.16331 -79.88766 27 ft 6 kts 306°
2026-04-26 16:43 -2.16295 -79.88783 27 ft 6 kts 356°
2026-04-26 16:43 -2.16256 -79.88767 27 ft 7 kts 29°
2026-04-26 16:44 -2.16212 -79.88743 27 ft 8 kts 29°
2026-04-26 16:44 -2.16163 -79.88716 28 ft 9 kts 29°
2026-04-26 16:44 -2.16108 -79.88685 28 ft 10 kts 29°
2026-04-26 16:44 -2.16045 -79.88650 26 ft 11 kts 29°
2026-04-26 16:45 -2.15972 -79.88610 27 ft 13 kts 29°
2026-04-26 16:45 -2.15893 -79.88566 27 ft 13 kts 29°
2026-04-26 16:45 -2.15811 -79.88520 27 ft 13 kts 29°
2026-04-26 16:45 -2.15728 -79.88472 27 ft 14 kts 30°
2026-04-26 16:46 -2.15639 -79.88420 26 ft 15 kts 30°
2026-04-26 16:46 -2.15545 -79.88365 26 ft 16 kts 30°
2026-04-26 16:46 -2.15448 -79.88308 26 ft 17 kts 30°
2026-04-26 16:46 -2.15347 -79.88249 29 ft 17 kts 30°
2026-04-26 16:47 -2.15282 -79.88227 29 ft 8 kts 354°
2026-04-26 16:47 -2.15241 -79.88262 26 ft 8 kts 302°
2026-04-26 16:47 -2.15212 -79.88311 27 ft 8 kts 300°
2026-04-26 16:47 -2.15184 -79.88360 27 ft 8 kts 300°
2026-04-26 16:48 -2.15142 -79.88392 27 ft 8 kts 359°
2026-04-26 16:48 -2.15089 -79.88372 27 ft 8 kts 26°
2026-04-26 16:48 -2.15037 -79.88346 27 ft 8 kts 26°
2026-04-26 16:48 -2.14986 -79.88321 27 ft 8 kts 26°
2026-04-26 16:49 -2.14939 -79.88309 26 ft 2 kts 333°
2026-04-26 16:49 -2.14928 -79.88321 26 ft 2 kts 318°
2026-04-26 16:49 -2.14911 -79.88323 26 ft 3 kts 349°
2026-04-26 16:49 -2.14901 -79.88332 26 ft 0 kts 309°